Location: Baumgartsau
(48.4586°N, 14.0864°E)
Time: 16:18:40
(UTC+00:00)

BREEZE M DEB (TANK) - Pass Details

Date: 19 May 2021
Orbit: 296 x 11842 km, 49.5° (Epoch: 22 June)

Event Time Altitude Azimuth Distance (km) Brightness Sun altitude
Rises 18:30:15 0° 290° (WNW) 4,675 9.5 0.9°
Reaches altitude 10° 18:32:13 10° 289° (WNW) 4,186 8.8 0.7°
Maximum altitude 18:44:54 78° 206° (SSW) 4,099 6.7 -1.1°
Drops below altitude 10° 19:49:09 10° 134° (SE) 15,449 8.9 -9.4°
Enters shadow 19:49:31 10° 134° (SE) 15,486 8.9 -9.5°
